Location: Innerarity Island Observatory
(30.3139°N, 87.4867°W)
Time: 15:15:51
(UTC-06:00)

Amateur Radio Satellites - All Passes

Search period start: 20 November 2017 14:45
Search period end: 21 November 2017 14:45
Location: Innerarity Island Observatory, 30.3139°N, 87.4867°W

Satellite Date Start Highest point End Downlink Frequencies (MHz)
Time Altitude Azimuth
AO-7 20 Nov 15:02:57 15:11:05 61° 256° (WSW) 15:19:17 .
BEESAT 20 Nov 15:12:51 15:17:37 83° 102° (ESE) 15:22:22 436.000
SRMSAT 20 Nov 15:21:14 15:21:35 10° 160° (SSE) 15:21:55 437.500
ITUPSAT 1 20 Nov 15:22:00 15:26:45 80° 285° (WNW) 15:31:29 437.325
JUGNU 20 Nov 15:22:33 15:27:27 27° 174° (S) 15:32:19 437.505
DOVE 4 20 Nov 15:25:44 15:29:47 26° 70° (ENE) 15:34:00 437.250
FALCONSAT 3 20 Nov 15:37:57 15:41:01 25° 211° (SSW) 15:44:04 435.103
MOZHAYETS 4 20 Nov 15:42:43 15:46:42 30° 287° (WNW) 15:50:41
CUBESAT XI-V 20 Nov 15:51:32 15:56:12 64° 101° (E) 16:00:51 437.345
KKS-1 20 Nov 16:04:31 16:07:13 16° 95° (E) 16:09:54 437.445
ITAMSAT 1 20 Nov 16:08:33 16:11:36 16° 265° (W) 16:14:41 435.822/435.867
XW-2B 20 Nov 16:17:03 16:18:21 12° 70° (ENE) 16:19:39 145.730 - 145.750
YUBILEINY 20 Nov 16:24:28 16:33:12 61° 82° (E) 16:41:53 435.215
STARS 20 Nov 16:32:09 16:33:29 11° 94° (E) 16:34:48 437.465
NUDT-PHONESAT 20 Nov 16:34:49 16:36:34 13° 70° (ENE) 16:38:18 437.300
XW-2C 20 Nov 16:40:38 16:43:44 25° 73° (ENE) 16:46:50 145.795 - 145.815
LilacSat-2 20 Nov 16:41:32 16:44:46 28° 74° (ENE) 16:48:01 437.200
XW-2F 20 Nov 16:51:46 16:55:05 33° 74° (ENE) 16:58:26 145.980 - 146.000
DOVE 4 20 Nov 17:03:09 17:07:16 27° 265° (W) 17:11:35 437.250
SRMSAT 20 Nov 17:05:45 17:10:08 22° 168° (SSE) 17:14:34 437.500
JUGNU 20 Nov 17:11:02 17:15:58 28° 184° (S) 17:20:53 437.505
CUBEBUG 2 20 Nov 17:19:52 17:20:09 10° 68° (ENE) 17:20:28 437.445
KAITUO 1B 20 Nov 17:20:34 17:24:11 65° 77° (ENE) 17:27:50 145.475/437.950
RS-15 20 Nov 17:28:22 17:39:56 52° 108° (ESE) 17:51:35 29.354- 29.394
CUTE-I 20 Nov 17:32:45 17:38:06 86° 254° (WSW) 17:43:31 437.470
XW-2D 20 Nov 17:33:43 17:37:19 49° 260° (W) 17:40:57 145.860 - 145.880
KKS-1 20 Nov 17:39:46 17:43:47 33° 287° (WNW) 17:47:46 437.445
HO-68 20 Nov 17:43:54 17:50:49 53° 71° (ENE) 17:57:45 435.675
XW-2B 20 Nov 17:48:49 17:52:10 31° 262° (W) 17:55:31 145.730 - 145.750
CUTE 1.7 + AOD 2 20 Nov 18:02:41 18:06:48 61° 77° (ENE) 18:10:56 437.475
STARS 20 Nov 18:05:47 18:09:57 45° 286° (WNW) 18:14:06 437.465
NUDT-PHONESAT 20 Nov 18:07:02 18:10:06 26° 263° (W) 18:13:12 437.300
XW-2A 20 Nov 18:07:37 18:09:17 13° 71° (ENE) 18:10:56 145.665 - 145.685
STRAND 1 20 Nov 18:08:23 18:11:08 14° 94° (E) 18:13:51 437.568
UWE-3 20 Nov 18:14:34 18:18:13 25° 73° (ENE) 18:21:49 435.000/436.395/437.385
XW-2C 20 Nov 18:15:52 18:17:51 14° 265° (W) 18:19:51 145.795 - 145.815
LilacSat-2 20 Nov 18:17:24 18:19:01 12° 266° (W) 18:20:40 437.200
YUBILEINY 20 Nov 18:22:54 18:29:12 22° 277° (W) 18:35:30 435.215
XW-2F 20 Nov 18:28:37 18:29:15 10° 266° (W) 18:29:52 145.980 - 146.000
SEEDS 20 Nov 18:34:26 18:38:35 89° 60° (ENE) 18:42:46 437.485
AAUSAT CUBESAT 2 20 Nov 18:43:28 18:47:20 42° 75° (ENE) 18:51:15 437.432
FO-29 20 Nov 18:45:16 18:47:19 11° 88° (E) 18:49:20 435.910
nSIGHT-1 20 Nov 18:50:19 18:52:08 14° 126° (SE) 18:53:57 .
CUBEBUG 2 20 Nov 18:51:39 18:56:15 59° 260° (W) 19:00:44 437.445
SRMSAT 20 Nov 18:53:44 18:58:49 30° 177° (S) 19:03:55 437.500
AO-73 20 Nov 18:57:31 19:01:27 34° 74° (ENE) 19:05:17 145.935
JUGNU 20 Nov 19:00:24 19:04:26 19° 194° (SSW) 19:08:28 437.505
Oscar 11 20 Nov 19:14:38 19:18:32 35° 74° (ENE) 19:22:26 .
ISS 20 Nov 19:31:00 19:34:01 35° 130° (SE) 19:37:03 437.550
HO-68 20 Nov 19:33:17 19:38:42 23° 264° (W) 19:44:09 435.675
XW-2A 20 Nov 19:39:13 19:41:44 20° 263° (W) 19:44:15 145.665 - 145.685
RS-15 20 Nov 19:41:07 19:52:31 43° 307° (NW) 20:04:01 29.354- 29.394
ZACube-1 20 Nov 19:41:48 19:46:06 54° 260° (W) 19:50:18 437.345
STRAND 1 20 Nov 19:45:34 19:50:28 47° 287° (WNW) 19:55:19 437.568
UWE-3 20 Nov 19:51:05 19:54:33 22° 264° (W) 19:57:57 435.000/436.395/437.385
AAUSAT CUBESAT 2 20 Nov 20:22:21 20:22:55 10° 267° (W) 20:23:29 437.432
nSIGHT-1 20 Nov 20:25:12 20:28:07 31° 318° (NW) 20:31:02 .
FO-29 20 Nov 20:25:22 20:33:14 84° 102° (ESE) 20:40:27 435.910
Max Valier Satellite 20 Nov 20:33:16 20:36:36 34° 75° (ENE) 20:39:56 145.860
EO-88 20 Nov 20:33:24 20:36:17 23° 73° (ENE) 20:39:10 145.990 - 145.960
AO-73 20 Nov 20:35:17 20:37:40 14° 265° (W) 20:40:02 145.935
SRMSAT 20 Nov 20:42:37 20:47:31 27° 187° (S) 20:52:26 437.500
Oscar 11 20 Nov 20:52:29 20:54:42 14° 266° (W) 20:56:56 .
DELFI C3 20 Nov 20:54:18 20:58:14 71° 260° (W) 21:02:11 145.870
SO-50 20 Nov 21:05:33 21:10:00 76° 116° (ESE) 21:14:28 436.795
ISS 20 Nov 21:08:27 21:10:34 16° 324° (NW) 21:12:41 437.550
NO-84 20 Nov 21:24:21 21:25:52 12° 35° (NE) 21:27:23 435.350 FM
UNISAT 6 20 Nov 21:26:56 21:31:09 65° 100° (E) 21:35:23 437.425
TIGRISAT 20 Nov 21:31:26 21:35:39 67° 101° (E) 21:39:52 435.000
ESTCUBE 1 20 Nov 21:58:09 22:01:52 26° 72° (ENE) 22:05:35 437.505/2401.250
RS-15 20 Nov 22:06:01 22:09:38 11° 336° (NNW) 22:13:15 29.354- 29.394
EO-88 20 Nov 22:07:49 22:09:50 14° 265° (W) 22:11:52 145.990 - 145.960
FO-29 20 Nov 22:12:42 22:17:07 17° 299° (WNW) 22:21:25 435.910
LO-87 20 Nov 22:31:53 22:35:29 73° 259° (W) 22:39:06 145.935 - 145.965
SRMSAT 20 Nov 22:32:37 22:36:09 16° 196° (SSW) 22:39:40 437.500
PRISM 20 Nov 22:35:24 22:39:28 55° 285° (WNW) 22:43:31 437.425
DUCHIFAT 1 20 Nov 22:51:51 22:53:24 12° 94° (E) 22:54:57 145.980
EO-79 20 Nov 22:57:14 23:00:19 20° 96° (E) 23:03:22 145.935-145.965
NO-84 20 Nov 22:59:30 23:03:47 87° 50° (NE) 23:07:55 435.350 FM
NANOSAT C BR1 20 Nov 23:00:51 23:03:51 19° 96° (E) 23:06:49 145.865
O/OREOS (USA 219) 20 Nov 23:10:01 23:14:27 53° 70° (ENE) 23:18:50 437.305
PCSat 20 Nov 23:10:10 23:15:13 42° 109° (ESE) 23:20:17 145.827
AIST 2D 20 Nov 23:11:12 23:14:40 59° 283° (WNW) 23:18:09 435.315
POLYITAN 1 20 Nov 23:11:53 23:15:34 30° 98° (E) 23:19:15 437.675
SPROUT 20 Nov 23:20:43 23:24:54 53° 75° (ENE) 23:29:04 437.525
QB50P2 20 Nov 23:34:45 23:38:57 71° 102° (ESE) 23:43:06 145.880/145.840
ESTCUBE 1 20 Nov 23:35:14 23:38:33 21° 264° (W) 23:41:54 437.505/2401.250
BUGSAT 1 20 Nov 23:46:32 23:47:33 11° 94° (E) 23:48:33 437.445
VELOX 1 20 Nov 23:56:03 00:00:28 90° 128° (SE) 00:04:56 145.980
DUCHIFAT 1 21 Nov 00:25:17 00:29:08 38° 286° (WNW) 00:32:58 145.980
50 SAT 21 Nov 00:26:35 00:29:37 38° 75° (ENE) 00:32:39 437.505
EO-79 21 Nov 00:32:36 00:35:56 23° 288° (WNW) 00:39:16 145.935-145.965
NANOSAT C BR1 21 Nov 00:36:03 00:39:26 24° 288° (WNW) 00:42:48 145.865
DX 1 21 Nov 00:42:47 00:47:05 63° 75° (ENE) 00:51:24 434.975-435.025
POLYITAN 1 21 Nov 00:48:32 00:51:03 16° 290° (WNW) 00:53:33 437.675
Oscar 19 21 Nov 00:53:51 00:58:45 42° 100° (E) 01:03:38 437.125/150
PCSat 21 Nov 00:54:41 00:58:43 21° 304° (NW) 01:02:46 145.827
Gurwin Techsat 1B 21 Nov 01:16:15 01:21:24 50° 100° (E) 01:26:32 435.225
BUGSAT 1 21 Nov 01:19:16 01:23:00 37° 286° (WNW) 01:26:41 437.445
UKube-1 21 Nov 01:25:37 01:29:53 64° 259° (W) 01:34:10 .
BEESAT 3 21 Nov 02:04:29 02:08:27 86° 296° (WNW) 02:12:28 437.485
BEESAT 21 Nov 02:13:21 02:17:56 49° 74° (ENE) 02:22:32 436.000
ITUPSAT 1 21 Nov 02:22:43 02:27:26 61° 75° (ENE) 02:32:09 437.325
AO-85 21 Nov 02:26:26 02:26:58 10° 107° (ESE) 02:27:31 145.980
M-CUBED/EXP-1 PRIME 21 Nov 02:33:27 02:38:05 82° 108° (ESE) 02:42:42 437.505
Oscar 19 21 Nov 02:34:18 02:37:40 18° 292° (WNW) 02:41:02 437.125/150
MOZHAYETS 4 21 Nov 02:37:58 02:42:30 64° 259° (W) 02:47:02
RS-15 21 Nov 02:38:29 02:48:55 35° 49° (NE) 02:58:49 29.354- 29.394
ITAMSAT 1 21 Nov 02:46:10 02:50:29 26° 97° (E) 02:54:47 435.822/435.867
CUBESAT XI-V 21 Nov 02:49:19 02:53:20 31° 73° (ENE) 02:57:23 437.345
nSIGHT-1 21 Nov 02:56:58 02:59:00 16° 36° (NE) 03:01:00 .
Gurwin Techsat 1B 21 Nov 02:57:45 03:00:52 16° 293° (WNW) 03:03:58 435.225
AO-7 21 Nov 03:10:48 03:19:08 68° 105° (ESE) 03:27:25 .
BEESAT 2 21 Nov 03:15:26 03:19:18 48° 300° (WNW) 03:23:12 435.950
YUBILEINY 21 Nov 03:28:49 03:30:58 11° 79° (ENE) 03:33:06 435.215
DOVE 4 21 Nov 03:32:53 03:34:09 11° 91° (E) 03:35:24 437.250
ISS 21 Nov 03:39:28 03:42:28 33° 42° (NE) 03:45:27 437.550
BEESAT 21 Nov 03:53:53 03:55:52 12° 266° (W) 03:57:50 436.000
AO-85 21 Nov 04:03:15 04:06:52 38° 300° (WNW) 04:10:35 145.980
ITAMSAT 1 21 Nov 04:25:26 04:29:48 28° 290° (WNW) 04:34:09 435.822/435.867
CUBESAT XI-V 21 Nov 04:27:35 04:30:41 18° 265° (W) 04:33:48 437.345
KKS-1 21 Nov 04:31:13 04:35:40 78° 258° (WSW) 04:40:10 437.445
nSIGHT-1 21 Nov 04:32:22 04:35:18 34° 230° (SW) 04:38:11 .
RS-15 21 Nov 04:50:31 05:01:49 60° 250° (WSW) 05:12:33 29.354- 29.394
STARS 21 Nov 04:55:55 05:00:19 74° 77° (ENE) 05:04:45 437.465
AO-7 21 Nov 05:05:05 05:11:07 23° 300° (WNW) 05:17:10 .
DOVE 4 21 Nov 05:07:09 05:12:11 59° 285° (WNW) 05:16:57 437.250
XW-2D 21 Nov 05:11:55 05:15:01 24° 97° (E) 05:18:07 145.860 - 145.880
ISS 21 Nov 05:16:56 05:18:40 14° 234° (SW) 05:20:24 437.550
YUBILEINY 21 Nov 05:17:35 05:26:18 83° 94° (E) 05:35:07 435.215
STRAND 1 21 Nov 05:19:47 05:21:48 12° 65° (ENE) 05:23:50 437.568
HO-68 21 Nov 05:21:37 05:24:00 12° 92° (E) 05:26:21 435.675
XW-2B 21 Nov 05:26:22 05:29:53 35° 99° (E) 05:33:25 145.730 - 145.750
NUDT-PHONESAT 21 Nov 05:41:53 05:45:22 37° 99° (E) 05:48:50 437.300
SO-50 21 Nov 05:43:17 05:46:09 16° 53° (NE) 05:49:00 436.795
XW-2C 21 Nov 05:51:42 05:55:31 88° 103° (ESE) 05:59:20 145.795 - 145.815
LilacSat-2 21 Nov 05:53:31 05:57:22 80° 282° (WNW) 06:01:13 437.200
CUTE 1.7 + AOD 2 21 Nov 05:54:12 05:56:56 17° 95° (E) 05:59:40 437.475
CUTE-I 21 Nov 05:55:42 06:01:01 63° 101° (ESE) 06:06:17 437.470
XW-2F 21 Nov 06:02:33 06:06:19 70° 283° (WNW) 06:10:06 145.980 - 146.000
SEEDS 21 Nov 06:24:20 06:27:41 22° 96° (E) 06:31:02 437.485
KAITUO 1B 21 Nov 06:30:51 06:34:20 36° 285° (WNW) 06:37:48 145.475/437.950
FO-29 21 Nov 06:32:21 06:36:57 20° 63° (ENE) 06:41:53 435.910
AAUSAT CUBESAT 2 21 Nov 06:33:47 06:34:30 10° 93° (E) 06:35:12 437.432
XW-2D 21 Nov 06:46:33 06:48:56 16° 289° (WNW) 06:51:20 145.860 - 145.880
CUBEBUG 2 21 Nov 06:48:19 06:52:15 41° 99° (E) 06:56:10 437.445
STRAND 1 21 Nov 06:55:18 07:00:23 61° 259° (WSW) 07:05:29 437.568
XW-2B 21 Nov 07:02:37 07:03:40 11° 291° (WNW) 07:04:42 145.730 - 145.750
HO-68 21 Nov 07:05:05 07:12:19 87° 286° (WNW) 07:19:29 435.675
XW-2A 21 Nov 07:05:20 07:08:20 29° 98° (E) 07:11:20 145.665 - 145.685
Oscar 11 21 Nov 07:10:45 07:10:50 10° 93° (E) 07:10:56 .
YUBILEINY 21 Nov 07:19:16 07:24:00 15° 291° (WNW) 07:28:47 435.215
SO-50 21 Nov 07:22:18 07:26:47 47° 247° (WSW) 07:31:19 436.795
CUTE 1.7 + AOD 2 21 Nov 07:29:00 07:32:43 29° 287° (WNW) 07:36:26 437.475
ZACube-1 21 Nov 07:35:35 07:39:30 40° 99° (E) 07:43:28 437.345
CUTE-I 21 Nov 07:38:09 07:40:27 13° 295° (WNW) 07:42:44 437.470
UWE-3 21 Nov 07:45:06 07:49:12 67° 283° (WNW) 07:53:19 435.000/436.395/437.385
SEEDS 21 Nov 07:59:57 08:03:11 22° 288° (WNW) 08:06:25 437.485
AAUSAT CUBESAT 2 21 Nov 08:06:06 08:10:05 43° 285° (WNW) 08:14:02 437.432
PCSat 21 Nov 08:06:29 08:07:56 11° 51° (NE) 08:09:22 145.827
FO-29 21 Nov 08:15:01 08:21:12 59° 260° (W) 08:28:15 435.910
UNISAT 6 21 Nov 08:20:01 08:23:57 29° 73° (ENE) 08:27:50 437.425
TIGRISAT 21 Nov 08:24:20 08:28:17 29° 73° (ENE) 08:32:11 435.000
AO-73 21 Nov 08:26:34 08:30:33 47° 285° (WNW) 08:34:34 145.935
FALCONSAT 3 21 Nov 08:26:40 08:30:12 46° 153° (SSE) 08:33:44 435.103
CUBEBUG 2 21 Nov 08:27:16 08:28:26 11° 292° (WNW) 08:29:36 437.445
DELFI C3 21 Nov 08:37:17 08:40:21 21° 96° (E) 08:43:24 145.870
Oscar 11 21 Nov 08:42:58 08:47:08 48° 285° (WNW) 08:51:18 .
HO-68 21 Nov 08:56:11 08:58:59 13° 301° (WNW) 09:01:46 435.675
ZACube-1 21 Nov 09:13:58 09:15:23 12° 291° (WNW) 09:16:48 437.345
PRISM 21 Nov 09:18:31 09:22:25 43° 74° (ENE) 09:26:20 437.425
EO-88 21 Nov 09:39:54 09:43:32 69° 101° (E) 09:47:10 145.990 - 145.960
AIST 2D 21 Nov 09:40:31 09:42:49 17° 72° (ENE) 09:45:08 435.315
Max Valier Satellite 21 Nov 09:41:42 09:45:21 70° 283° (WNW) 09:49:00 145.860
PCSat 21 Nov 09:46:31 09:51:57 85° 247° (WSW) 09:57:21 145.827
UNISAT 6 21 Nov 09:57:14 10:00:34 20° 264° (W) 10:03:52 437.425
POLYITAN 1 21 Nov 10:00:50 10:02:16 12° 68° (ENE) 10:03:43 437.675
TIGRISAT 21 Nov 10:01:36 10:04:53 19° 264° (W) 10:08:10 435.000
FALCONSAT 3 21 Nov 10:05:42 10:09:17 49° 347° (NNW) 10:12:53 435.103
LO-87 21 Nov 10:05:52 10:07:22 12° 94° (E) 10:08:53 145.935 - 145.965
DELFI C3 21 Nov 10:11:59 10:14:54 20° 289° (WNW) 10:17:49 145.870
QB50P2 21 Nov 10:21:56 10:25:23 24° 72° (ENE) 10:28:49 145.880/145.840
PRISM 21 Nov 10:57:25 10:57:48 10° 266° (W) 10:58:12 437.425
DUCHIFAT 1 21 Nov 11:10:29 11:14:40 68° 77° (ENE) 11:18:52 145.980
SPROUT 21 Nov 11:13:28 11:15:40 14° 94° (E) 11:17:53 437.525
AIST 2D 21 Nov 11:13:29 11:15:49 17° 264° (W) 11:18:10 435.315
EO-79 21 Nov 11:17:58 11:22:12 70° 259° (W) 11:26:26 145.935-145.965
NANOSAT C BR1 21 Nov 11:21:06 11:25:20 74° 259° (WSW) 11:29:33 145.865
ESTCUBE 1 21 Nov 11:31:53 11:36:23 63° 284° (WNW) 11:40:51 437.505/2401.250
POLYITAN 1 21 Nov 11:33:33 11:37:36 43° 261° (W) 11:41:39 437.675
LO-87 21 Nov 11:37:49 11:40:45 24° 286° (WNW) 11:43:38 145.935 - 145.965
BEESAT 2 21 Nov 11:39:10 11:41:42 16° 54° (NE) 11:44:14 435.950
O/OREOS (USA 219) 21 Nov 11:39:47 11:41:47 13° 99° (E) 11:43:49 437.305
FALCONSAT 3 21 Nov 11:45:19 11:48:45 36° 3° (N) 11:52:11 435.103
VELOX 1 21 Nov 11:52:09 11:55:53 26° 97° (E) 11:59:36 145.980
QB50P2 21 Nov 11:57:56 12:01:03 20° 264° (W) 12:04:10 145.880/145.840
BUGSAT 1 21 Nov 12:02:20 12:06:29 62° 76° (ENE) 12:10:37 437.445
BEESAT 3 21 Nov 12:03:41 12:07:32 57° 245° (WSW) 12:11:17 437.485
Oscar 19 21 Nov 12:05:13 12:09:48 34° 72° (ENE) 12:14:23 437.125/150
Gurwin Techsat 1B 21 Nov 12:31:36 12:36:39 45° 73° (ENE) 12:41:41 435.225
DX 1 21 Nov 12:37:42 12:40:34 17° 96° (E) 12:43:26 434.975-435.025
AO-85 21 Nov 12:38:34 12:42:58 34° 59° (ENE) 12:47:36 145.980
SPROUT 21 Nov 12:47:46 12:51:36 34° 287° (WNW) 12:55:24 437.525
M-CUBED/EXP-1 PRIME 21 Nov 13:14:23 13:17:28 31° 69° (ENE) 13:20:46 437.505
BEESAT 2 21 Nov 13:15:55 13:19:27 31° 248° (WSW) 13:22:56 435.950
O/OREOS (USA 219) 21 Nov 13:16:23 13:20:44 43° 292° (WNW) 13:25:07 437.305
UKube-1 21 Nov 13:18:25 13:22:17 31° 99° (E) 13:26:07 .
JUGNU 21 Nov 13:19:46 13:23:49 19° 166° (SSE) 13:27:51 437.505
50 SAT 21 Nov 13:20:56 13:24:09 82° 101° (E) 13:27:20 437.505
FALCONSAT 3 21 Nov 13:24:26 13:28:07 69° 17° (NNE) 13:31:49 435.103
VELOX 1 21 Nov 13:28:49 13:32:06 21° 290° (WNW) 13:35:23 145.980
Oscar 19 21 Nov 13:45:21 13:49:06 20° 264° (W) 13:52:52 437.125/150
ITAMSAT 1 21 Nov 13:58:46 14:02:51 24° 69° (ENE) 14:06:56 435.822/435.867
AO-7 21 Nov 14:03:20 14:11:20 56° 68° (ENE) 14:19:21 .
NO-84 21 Nov 14:09:25 14:12:53 70° 311° (NW) 14:16:40 435.350 FM
DX 1 21 Nov 14:12:54 14:16:43 30° 288° (WNW) 14:20:31 434.975-435.025
Gurwin Techsat 1B 21 Nov 14:13:26 14:16:42 16° 265° (W) 14:19:59 435.225
AO-85 21 Nov 14:19:22 14:23:12 23° 250° (WSW) 14:27:12 145.980
BEESAT 21 Nov 14:19:58 14:23:23 20° 96° (E) 14:26:47 436.000
ITUPSAT 1 21 Nov 14:29:28 14:33:21 25° 97° (E) 14:37:12 437.325
